Delta Virtual Airport Information Service

Orlando International Airport

ICAO: KMCO Country: United States
Latitude: 28.4294 Longitude: -81.3089
Latest Arrival : DAL845 (B) (KJFK-KMCO) Latest Departure : DAL1079 (KMCO-MMUN)


WX CaptureLIVE
Data provided by noaa.gov | Fetched at 22:17:44

METAR : KMCO 240253Z 07004KT 10SM SCT041 BKN250 23/22 A3000 RMK AO2 SLP158 T02280222 51005

TAF : KMCO 240258Z 2403/2506 06005KT P6SM FEW025 SCT050 FM241500 08007KT P6SM SCT025 SCT250 FM241900 09008KT P6SM VCSH SCT030 BKN100 FM250000 07005KT P6SM FEW020 SCT100


Runway Data for KMCO
Data provided by openaviationdata.com

Runway ID Mag Var Hdg Length Elevation Surface ILS Freq ILS Id ILS Slope
17L -5 184° 9025 ft 96 ft Concrete 110.95 IARK 3
17R -5 184° 10027 ft 96 ft Concrete 111.75 IDIZ 3
18L -5 184° 12037 ft 96 ft Asphalt -- -- --
18R -5 184° 12037 ft 96 ft Concrete 111.9 ITFE 3
35L -5 10027 ft 96 ft Concrete 110.5 IDDO 3
35R -5 9025 ft 96 ft Concrete 111.15 ICER 3
36L -5 12037 ft 96 ft Concrete -- -- --
36R -5 12037 ft 96 ft Asphalt 110.7 IOJP 3

Orlando International Airport, United States
Use only for reference purposes



Not for navigational purposes.